Location: Dallas
(32.7833°N, 96.8000°W)
Time: 02:06:47
(UTC-05:00)

N. Korean satellite - Visible Passes

Search period start: 14 August 2020 00:00
Search period end: 24 August 2020 00:00
Orbit: 453 x 506 km, 97.2° (Epoch: 13 August)

Date Brightness Start Highest point End Pass type
(mag) Time Alt. Az. Time Alt. Az. Time Alt. Az.
14 Aug 9.5 06:12:21 10° NE 06:14:52 18° E 06:17:24 10° SE visible
18 Aug 9.8 06:02:41 10° ENE 06:04:31 13° E 06:06:22 10° SE visible
21 Aug 9.4 06:17:17 10° NE 06:20:10 22° E 06:23:04 10° SSE visible
